Regional Weather Roundup
Issued by NWS

Home | Current Version | Previous Version | Graphics & Text | Print | Product List | Glossary On
Versions: 1 2 3 4 5 6 7 8 9 10 11 12 13 14 15 16 17 18 19 20 21 22 23 24 25 26 27 28 29 30 31 32 33 34 35 36 37 38 39 40 41 42 43 44 45 46 47 48 49 50
000
ASUS43 KIND 041609
RWRIN

WEATHER ROUNDUP FOR INDIANA
NATIONAL WEATHER SERVICE INDIANAPOLIS IN
1200 PM EDT TUE AUG 04 2015

NOTE: "FAIR" INDICATES FEW OR NO CLOUDS BELOW 12,000 FEET WITH NO
SIGNIFICANT WEATHER AND/OR OBSTRUCTIONS TO VISIBILITY.

* - STATION DOES NOT REPORT WEATHER SUCH AS PRECIPITATION OR FOG.

+ - STATION NOT QUALITY CONTROLLED BY THE NATIONAL WEATHER SERVICE.
    USE DATA WITH CAUTION...ESPECIALLY DEWPOINT AND RELATIVE
    HUMIDITY OBSERVATIONS.

INZ001>003-010>013-019-020-041700-
NORTHWEST INDIANA

CITY           SKY/WX    TMP DP  RH WIND       PRES   REMARKS
GARY /AIRPORT/ PTSUNNY   79  52  38 W6        29.98S
KNOX *+        SUNNY     77  55  47 NW9       29.98S
LA PORTE +     MOSUNNY   78  55  44 W6G17     29.99S
MICHIGAN CITY+ SUNNY     77  48  36 W8        29.99S
MONTICELLO +   SUNNY     76  61  60 W7        29.99S
RENSSELAER +   SUNNY     77  57  50 W6        30.00S
VALPARAISO     SUNNY     77  52  41 NW5       29.99S

$$

LMZ046-743>745-041700-
SOUTHERN LAKE MICHIGAN

STATION/POSITION TIME  TEMP    WIND        PRES    WAVE
                       AIR SEA DIR/SP/G            HT
                 (UTC) (F)     (DEG/KT/KT) (MB)    (FT)
BURNS HARBOR     1500   72     300/  5/  6 1015.9R
MICHIGAN CITY    1500   70     230/  7/  8   N/A
5NW MICH CITY    1600   72 74  270/  6/  8   N/A     1

$$

INZ004-005-014>016-021>024-041700-
NORTH CENTRAL INDIANA

CITY           SKY/WX    TMP DP  RH WIND       PRES   REMARKS
ELKHART        PTSUNNY   77  54  44 W12       29.99R
GOSHEN         SUNNY     76  59  55 W8        29.98S
LOGANSPORT +   SUNNY     77  54  44 W8        30.01S
PERU/GRISSOM   SUNNY     76  60  57 W12       29.99S
ROCHESTER +    SUNNY     77  59  53 W5        30.00S
SOUTH BEND     SUNNY     78  55  44 W10       29.98S
WARSAW +       SUNNY     77  59  53 W5        29.99S

$$

INZ006>009-017-018-025>027-041700-
NORTHEAST INDIANA

CITY           SKY/WX    TMP DP  RH WIND       PRES   REMARKS
ANGOLA *+      MOSUNNY   79  63  57 VRB5      29.98R
AUBURN +       SUNNY     77  55  47 SW7       29.99S
FORT WAYNE     PTSUNNY   77  59  53 W12       29.99S
HUNTINGTON +   SUNNY     76  58  53 W8        29.99S

$$

INZ028-029-035-036-043>045-051>053-041700-
WEST CENTRAL INDIANA

CITY           SKY/WX    TMP DP  RH WIND       PRES   REMARKS
CRAWFORDSVL +  MOSUNNY   74  53  47 SW6         N/A
GREENCASTLE +  MOSUNNY   77  50  38 CALM      30.03S
LAFAYETTE      MOSUNNY   76  61  59 SW6       30.00S
TERRE HAUTE    MOSUNNY   80  57  45 VRB5      30.02R

$$

INZ030>032-037>040-046>048-054>057-064-065-041700-
CENTRAL INDIANA

CITY           SKY/WX    TMP DP  RH WIND       PRES   REMARKS
ANDERSON       SUNNY     77  48  36 SW7       30.02S
FRANKFORT +    MOSUNNY   78  62  58 SW8       30.03S
GREENWOOD *+   MOSUNNY   79  52  38 W6        30.02S
INDIANAPOLIS   PTSUNNY   80  54  40 W8        30.01R
-EAGLE CREEK   MOSUNNY   78  55  44 W9        30.01R
KOKOMO *+      SUNNY     79  57  47 W10G16    30.00S
MARION +       SUNNY     75  59  56 W8        30.01S
MT COMFORT *+  MOSUNNY   79  45  29 W6        30.02R
SHELBYVILLE    MOSUNNY   80  60  50 W7        30.01R
ZIONSVILLE +   MOSUNNY   77  54  44 W8        30.03R

$$

INZ033-034-041-042-049-050-058-059-041700-
EAST CENTRAL INDIANA

CITY           SKY/WX    TMP DP  RH WIND       PRES   REMARKS
MUNCIE         SUNNY     75  57  53 W10       30.01R

$$

INZ060-061-067>069-081>083-085>088-041700-
SOUTHWEST INDIANA

CITY           SKY/WX    TMP DP  RH WIND       PRES   REMARKS
EVANSVILLE     PTSUNNY   82  70  66 CALM      30.00F
HUNTINGBURG *+ CLOUDY    75  70  83 CALM      30.01F
WASHINGTON +   CLOUDY    79  62  56 CALM      30.00S

$$

INZ062-063-066-070>080-084-089>092-041700-
SOUTH CENTRAL AND SOUTHEAST INDIANA

CITY           SKY/WX    TMP DP  RH WIND       PRES   REMARKS
BLOOMINGTON    PTSUNNY   80  59  48 W6        30.02S
MADISON *+     MOSUNNY   81  61  50 W7        30.04R
NORTH VERNON + MOSUNNY   82  57  42 W7        30.01S
SEYMOUR +      PTSUNNY   84  61  45 W7        30.01R

$$



USA.gov is the U.S. government's official web portal to all federal, state and local government web resources and services.